Regional Weather Roundup
Issued by NWS

Home | Current Version | Previous Version | Text Only | Print | Product List | Glossary Off
Versions: 1 2 3 4 5 6 7 8 9 10 11 12 13 14 15 16 17 18 19 20 21 22 23 24 25 26 27 28 29 30 31 32 33 34 35 36 37 38 39 40 41 42 43 44 45 46 47 48 49 50

193
ASUS44 KMEG 100110
RWRTN
TENNESSEE HOURLY STATE WEATHER ROUNDUP
NATIONAL WEATHER SERVICE MEMPHIS TN
700 PM CST FRI DEC 09 2016

TNZ002-004-019-021-049-052-054-088>092-100200-
WEST TENNESSEE

CITY           SKY/WX    TMP DP  RH WIND       PRES   REMARKS
MEMPHIS INTL   CLEAR     30  19  63 N5        30.57S WCI  25
NWS MEMPHIS      N/A     29 N/A N/A MISG        N/A
JACKSON        CLEAR     26  18  71 CALM      30.58R
DYERSBURG      CLEAR     28  16  59 N3        30.58R
UNION CITY       N/A     23  16  74 CALM      30.57R
PARIS          CLEAR     19  14  79 CALM      30.56R
HUNTINGDON     CLEAR     27  23  86 CALM      30.56R
LEXINGTON      CLEAR     27  16  63 CALM      30.54S
$$

TNZ008-025-027-028-033-062-065-066-100200-
NORTH MIDDLE TENNESSEE

CITY           SKY/WX    TMP DP  RH WIND       PRES   REMARKS
NASHVILLE      CLEAR     29  16  58 N6        30.56R WCI  23
PORTLAND       CLOUDY    25  18  74 N5        30.54R WCI  19
CLARKSVILLE    CLEAR     27  15  61 NW3       30.56R
SMYRNA         CLEAR     28  19  69 N5        30.56S WCI  23
GALLATIN       CLOUDY    27  19  74 CALM      30.58R
CROSSVILLE     CLEAR     24  14  65 N5        30.46S WCI  18
$$

TNZ061-075-076-078-094-096-097-100200-
SOUTH MIDDLE TENNESSEE

CITY           SKY/WX    TMP DP  RH WIND       PRES   REMARKS
FAYETTEVILLE   MOCLDY    30  19  64 CALM      30.52R
TULLAHOMA      CLEAR     27  14  59 CALM      30.51S
WINCHESTER     CLEAR     28  18  64 CALM      30.52R
MCMINNVILLE    CLEAR     25  16  68 CALM        N/A
COLUMBIA       CLEAR     27  19  74 CALM      30.52S
SHELBYVILLE    CLEAR     28  19  69 NE3       30.53F
$$

TNZ017-018-042-046-047-100200-
NORTHEAST TENNESSEE

CITY           SKY/WX    TMP DP  RH WIND       PRES   REMARKS
TRI CITIES     CLEAR     26  13  57 W3        30.46S
ELIZABETHTON     N/A     21  16  79 CALM      30.46R
$$

TNZ012-013-036-069-073-074-100200-
CENTRAL EAST TENNESSEE

CITY           SKY/WX    TMP DP  RH WIND       PRES   REMARKS
KNOXVILLE      CLEAR     27  16  63 NE5       30.49S WCI  22
OAK RIDGE      CLEAR     28  18  66 E3        30.51F
DOWNTOWN KNOXV PTCLDY    28  19  69 CALM      30.51F
GATLINBURG     CLEAR     25  16  68 CALM      30.50R
MORRISTOWN     PTCLDY    27  16  63 N6        30.48R WCI  20
JACKSBORO      CLEAR     28  16  59 CALM      30.53S
$$

TNZ083-085-099-100200-
SOUTHEAST TENNESSEE

CITY           SKY/WX    TMP DP  RH WIND       PRES   REMARKS
CHATTANOOGA    CLEAR     33  15  47 N7        30.52R WCI  27
$$

SKY/WX REPORTED AS FAIR MEANS FEW OR NO CLOUDS BELOW
12 THOUSAND FEET.





USA.gov is the U.S. government's official web portal to all federal, state and local government web resources and services.